Back to catalog

STARLINK-34233

AliveCommunicationsVLEO
NORAD 64172·PAYLOAD·🇺🇸 United States

Launched May 28, 2025 from Cape Canaveral Space Force Station

Loading…

Next Passes (next 24 hours)

TLE

FreshSource: CelesTrak SupGP

Epoch: Sep 15, 2026, 03:22 UTC

1 64172C 25113C   26258.14076389  .00003560  00000+0  11448-3 0  2585
2 64172  53.1580 289.8688 0001212  94.2320 101.4506 15.31699189    19

Track STARLINK-34233 in real time with AllMySat

Download on the App Store